Regional Weather Roundup
Issued by NWS Charleston, SC

Current Version | Previous Version | Graphics & Text | Print | Product List | Glossary On
Versions: 1 2 3 4 5 6 7 8 9 10 11 12 13 14 15 16 17 18 19 20 21 22 23 24 25 26 27 28 29 30 31 32 33 34 35 36 37 38 39 40 41 42 43 44 45 46 47 48 49 50
000
ASUS42 KCHS 282113
RWRCHS

REGIONAL WEATHER ROUNDUP
NATIONAL WEATHER SERVICE CHARLESTON SC
500 PM EDT THU APR 28 2016

NOTE: "FAIR" INDICATES FEW OR NO CLOUDS BELOW 12,000 FEET WITH NO
SIGNIFICANT WEATHER AND/OR OBSTRUCTIONS TO VISIBILITY.

NOT ALL STATIONS ARE QUALITY CONTROLLED. USE DATA WITH CAUTION...
ESPECIALLY DEWPOINT OBSERVATIONS.

SCZ027-030-031-034>040-042>050-282200-
...SOUTHEAST SOUTH CAROLINA...

CITY           SKY/WX    TMP DP  RH WIND       PRES   REMARKS
N CHARLESTON   TSTM      72  68  87 SW13G25   29.92R
WATERFRONT PRK   N/A     77  67  71 SW8       29.89F
MOUNT PLEASANT DRIZZLE   75  68  78 S12       29.92R
JOHNS ISLAND   FAIR      77  66  69 S12       29.92S
PINOPOLIS        N/A     88  70  55 VRB3      29.83S HX  92
MONCKS CORNER  CLOUDY    84  63  48 S15       29.89S
SUMMERVILLE    FAIR      79  72  78 SE7       29.91S THUNDER
BEAUFORT MCAS  TSTM      79  70  74 S9G17     29.90F
BEAUFORT ARPT  HVY RAIN  77  68  73 S7        29.91S
HILTON HEAD IS MOSUNNY   84  68  58 S9G20     29.93F
WALTERBORO     PTCLDY    88  64  45 W12       29.90S
ALLENDALE      FAIR      84  66  54 CALM      29.88F

...SOUTHERN MIDLANDS AND PEE DEE...

CITY           SKY/WX    TMP DP  RH WIND       PRES   REMARKS
GEORGETOWN     FAIR      79  66  65 S15       29.90F
KINGSTREE      FAIR      86  64  48 S3        29.87F
ORANGEBURG     SUNNY     87  65  47 W13G20    29.88F
BARNWELL       FAIR      88  68  51 W9        29.89F HX  91
AIKEN          FAIR      84  63  48 SW13      29.92F
MANNING        NOT AVBL
COLUMBIA       MOSUNNY   88  65  46 W12       29.85F HX  90
SUMTER         SUNNY     86  65  49 SW13      29.84F
FLORENCE       MOSUNNY   85  67  54 SW14      29.86F
MYRTLE BEACH   MOSUNNY   79  64  61 S14       29.91F
N MYRTLE BEACH SUNNY     75  68  78 S14       29.90F

$$

GAZ063-065-086>088-099>101-113>116-118-119-134>141-150-282200-
...SOUTHEAST GEORGIA...

CITY           SKY/WX    TMP DP  RH WIND       PRES   REMARKS
SAVANNAH ARPT  CLOUDY    84  65  52 SW13      29.91F
HUNTER AAF     CLOUDY    83  71  66 S8        29.89F
FORT STEWART   CLOUDY    84  67  57 W10       29.90F
STATESBORO     PTSUNNY   82  72  70 SW9       29.93R
SYLVANIA       MOCLDY    81  73  76 SW6       29.92S
CLAXTON        FAIR      79  73  81 SW6       29.94R

...CSRA...CENTRAL AND FAR SOUTHEAST GEORGIA...

CITY           SKY/WX    TMP DP  RH WIND       PRES   REMARKS
THOMSON        MOSUNNY   88  69  52 SW7       29.93F HX  92
AUGUSTA-BUSH   MOSUNNY   86  66  51 W9        29.87F
AUGUSTA-DANIEL MOSUNNY   87  64  46 SW8       29.89F
SWAINSBORO     FAIR      75  72  88 S7        29.95F THUNDER
VIDALIA        CLOUDY    73  70  88 N3        29.95S
EASTMAN        LGT RAIN  79  79 100 W6        29.96F
HAZLEHURST     FAIR      82  73  72 S3        29.93F
ALMA           PTSUNNY   80  67  64 CALM      29.93F
WAYCROSS       CLOUDY    81  70  69 SE3       29.94S
JESUP          FAIR      81  70  69 W6        29.94R
BAXLEY         FAIR      79  72  78 S5        29.93F
BRUNSWICK      CLOUDY    88  70  55 NW6       29.93F HX  92
SAINT SIMONS   CLOUDY    77  69  76 S10       29.92F

$$

SCZ027-028-034-036>038-045-046-048>050-GAZ119-141-282200-
...LAKE AND SUPPLEMENTAL COASTAL OBSERVATIONS...

STATION/POSITION TIME  TEMP    WIND        PRES    WAVE   SWELL
                       AIR SEA DIR/SP/G            HT/PER HT/PER/DIR
                 (UTC) (F)     (DEG/KT/KT) (MB)    (FT/S) (FT/S/D)
WINYAH BAY       1945   78     190/ 11     1013.0
LAKE MURRAY      2000   81     240/ 10/ 13 1011.2F
ACE BASIN NERRS  NOT AVBL
FORT PULASKI     2000   77 71  190/  7/ 12 1013.8F
SAPELO ISLAND    2000   79     160/  7     1014.0S

$$

ANZ835-935-AMZ111-154-330-350-352-354-370-450-454-472-282200-
...C-MAN AND BUOY OBSERVATIONS...

STATION/POSITION TIME  TEMP    WIND        PRES    WAVE   SWELL
                       AIR SEA DIR/SP/G            HT/PER HT/PER/DIR
                 (UTC) (F)     (DEG/KT/KT) (MB)    (FT/S) (FT/S/D)
BUOY 41004       2050   73 72  190/  8/ 10 1013.4F   3/ 5   2/ 5
BUOY 41008       NOT AVBL
FOLLY BEACH CMAN 2000   73     200/ 11/ 13 1013.6F
CAPERS NEARSHORE 2008   72 72  210/ 12/ 16 1012.9F
FRIPP NEARSHORE  2008   73 72  190/ 14/ 17 1012.3F


STATION/POSITION TIME  TEMP    WIND        PRES    WAVE   SWELL
                       AIR SEA DIR/SP/G            HT/PER HT/PER/DIR
                 (UTC) (F)     (DEG/KT/KT) (MB)    (FT/S) (FT/S/D)
5E ST. MARYS GA  2021      73                N/A     2/ 4
FRYING PAN BUOY  2000   72 70  200/ 10/ 12 1013.5F
BUOY 41025       2050   74 72  210/ 17/ 19 1012.1F   4/ 6   2/110/11
CAPE LOOKOUT NC  2000   72     200/ 12/ 16 1012.2F
BUOY 41002       2050   72 72  190/  8/ 10 1016.2F   2/11   2/ 70/11
BUOY 41010       2020   76 77  190/  8/ 10 1015.7F
ST AUGUSTINE FL  2100   74 72  170/  7/  8 1014.9F


$$




USA.gov is the U.S. government's official web portal to all federal, state and local government web resources and services.